Change the Weather History Date:

Wednesday, May 8, 2013

  Actual Average (KNYG) Record (KNYG)
Temperature  
Mean Temperature 62 °F -  
Max Temperature 70 °F 71 °F 88 °F (2000)
Min Temperature 54 °F 52 °F 39 °F (2007)
Degree Days  
Heating Degree Days 3    
Growing Degree Days 12 (Base 50)    
Moisture  
Dew Point 58 °F    
Average Humidity 92    
Maximum Humidity 100    
Minimum Humidity 60    
Precipitation  
Precipitation 1.18 in - - ()
Sea Level Pressure  
Sea Level Pressure 30.01 in    
Wind  
Wind Speed 2 mph (East)    
Max Wind Speed 8 mph    
Max Gust Speed 18 mph    
Visibility 6 miles    
Events Fog , Rain , Thunderstorm    
Averages and records for this station are not official NWS values.
T = Trace of Precipitation, MM = Missing Value Source: NWS Daily Summary

Daily Weather History Graph

Daily Weather History Graph

Search for Another Location

Airport or City:

Trip Planner

Search our weather history database for the weather conditions in past years. The results will help you decide how hot, cold, wet, or windy it might be!

Date:

Astronomy

May. 08, 2013 Rise Set
Actual Time 6:04 AM EDT 8:08 PM EDT
Civil Twilight 5:35 AM EDT 8:37 PM EDT
Nautical Twilight 5:00 AM EDT 9:13 PM EDT
Astronomical Twilight 4:21 AM EDT 9:51 PM EDT
Moon 5:10 AM EDT (5/8) 7:05 PM EDT (5/8)
Length of Visible Light 15h 01m
Length of Day
14h 03m
Waning Crescent, 2% of the Moon is Illuminated
May 8
Waning Crescent
May 9
New
May 18
First Quarter
May 25
Full
May 31
Last Quarter

Hourly Weather History & Observations

Time (EDT) Temp. Dew Point Humidity Pressure Visibility Wind Dir Wind Speed Gust Speed Precip Events Conditions
12:15 AM 58.1 °F 58.1 °F 100% 30.00 in 7.0 mi Calm Calm - 0.01 in Rain Light Rain
12:35 AM 57.7 °F 57.7 °F 100% 30.01 in 7.0 mi East 3.5 mph - 0.01 in Rain Light Rain
12:55 AM 58.1 °F 58.1 °F 100% 30.01 in 10.0 mi ENE 4.6 mph - 0.01 in   Mostly Cloudy
1:15 AM 58.1 °F 58.1 °F 100% 30.00 in 10.0 mi ENE 3.5 mph - N/A   Overcast
1:35 AM 56.8 °F 56.8 °F 100% 30.00 in 2.5 mi Calm Calm - N/A   Overcast
1:55 AM 56.5 °F 56.5 °F 100% 30.00 in 1.0 mi Calm Calm - N/A   Overcast
2:15 AM 55.4 °F 55.4 °F 100% 29.99 in 0.2 mi Calm Calm - N/A Fog Fog
2:35 AM 55.0 °F 55.0 °F 100% 29.99 in 0.2 mi Calm Calm - N/A Fog Fog
2:55 AM 55.0 °F 55.0 °F 100% 29.99 in 0.2 mi NW 3.5 mph - N/A Fog Fog
3:15 AM 54.9 °F 54.9 °F 100% 29.99 in 0.2 mi NNW 3.5 mph - N/A Fog Fog
3:35 AM 54.3 °F 54.3 °F 100% 29.99 in 0.2 mi Calm Calm - N/A Fog Fog
3:55 AM 55.0 °F 55.0 °F 100% 30.00 in 1.2 mi Calm Calm - N/A   Overcast
4:15 AM 55.4 °F 55.4 °F 100% 29.99 in 4.0 mi Calm Calm - N/A   Overcast
4:35 AM 55.6 °F 55.6 °F 100% 29.99 in 2.0 mi Calm Calm - N/A   Overcast
4:55 AM 55.6 °F 55.6 °F 100% 29.99 in 4.0 mi Calm Calm - N/A   Overcast
5:15 AM 55.0 °F 55.0 °F 100% 29.99 in 2.5 mi Calm Calm - N/A   Overcast
5:35 AM 55.4 °F 55.4 °F 100% 29.99 in 5.0 mi Calm Calm - N/A   Overcast
5:55 AM 55.9 °F 55.9 °F 100% 30.00 in 5.0 mi Calm Calm - N/A   Overcast
6:15 AM 56.5 °F 56.5 °F 100% 30.00 in 3.0 mi Calm Calm - N/A   Overcast
6:35 AM 56.3 °F 56.3 °F 100% 30.01 in 1.5 mi Calm Calm - 0.01 in   Overcast
6:55 AM 57.6 °F 57.6 °F 100% 30.01 in 2.5 mi NW 3.5 mph - 0.01 in   Overcast
7:15 AM 58.1 °F 58.1 °F 100% 30.02 in 3.0 mi Calm Calm - N/A   Overcast
7:35 AM 59.2 °F 59.2 °F 100% 30.02 in 5.0 mi North 3.5 mph - N/A   Overcast
7:55 AM 59.5 °F 59.5 °F 100% 30.03 in 7.0 mi NE 5.8 mph - N/A   Overcast
8:15 AM 60.1 °F 60.1 °F 100% 30.04 in 10.0 mi ENE 5.8 mph - N/A   Overcast
8:35 AM 59.5 °F 59.2 °F 99% 30.04 in 10.0 mi ENE 3.5 mph - N/A   Overcast
8:55 AM 61.0 °F 60.1 °F 97% 30.05 in 10.0 mi East 3.5 mph - N/A   Overcast
9:15 AM 61.2 °F 59.4 °F 94% 30.05 in 10.0 mi ESE 3.5 mph - N/A   Overcast
9:35 AM 61.7 °F 59.7 °F 93% 30.05 in 10.0 mi East 3.5 mph - N/A   Overcast
9:55 AM 62.1 °F 58.5 °F 88% 30.05 in 10.0 mi East 4.6 mph - N/A   Overcast
10:15 AM 63.1 °F 58.8 °F 86% 30.05 in 10.0 mi East 4.6 mph - N/A   Overcast
10:35 AM 63.0 °F 58.6 °F 86% 30.05 in 10.0 mi East 3.5 mph - N/A   Overcast
10:55 AM 63.7 °F 58.3 °F 83% 30.05 in 10.0 mi Calm Calm - N/A   Mostly Cloudy
11:15 AM 64.6 °F 58.6 °F 81% 30.04 in 10.0 mi Calm Calm - N/A   Mostly Cloudy
11:35 AM 65.8 °F 59.2 °F 79% 30.04 in 10.0 mi ESE 3.5 mph - N/A   Mostly Cloudy
11:55 AM 66.4 °F 59.0 °F 77% 30.03 in 10.0 mi Calm Calm - N/A   Mostly Cloudy
12:15 PM 66.4 °F 59.7 °F 79% 30.03 in 10.0 mi SSE 6.9 mph - N/A   Mostly Cloudy
12:35 PM 67.3 °F 57.6 °F 71% 30.03 in 10.0 mi South 4.6 mph - N/A   Scattered Clouds
12:55 PM 67.8 °F 58.1 °F 71% 30.02 in 10.0 mi SE 5.8 mph - N/A   Scattered Clouds
1:15 PM 68.5 °F 59.5 °F 73% 30.01 in 10.0 mi South 6.9 mph - N/A   Mostly Cloudy
1:35 PM 68.2 °F 57.4 °F 68% 30.01 in 10.0 mi SSE 8.1 mph - N/A   Mostly Cloudy
1:55 PM 69.3 °F 56.7 °F 64% 30.00 in 10.0 mi SE 6.9 mph - N/A Thunderstorm Scattered Clouds
2:15 PM 70.0 °F 57.2 °F 64% 29.99 in 10.0 mi SSW 4.6 mph - N/A   Scattered Clouds
2:35 PM 70.9 °F 56.5 °F 60% 29.98 in 10.0 mi South 4.6 mph - N/A Thunderstorm Scattered Clouds
2:55 PM 68.2 °F 55.6 °F 64% 29.98 in 10.0 mi SSW 8.1 mph - N/A Thunderstorm Thunderstorm
3:15 PM 61.2 °F 57.9 °F 89% 29.99 in 2.5 mi Calm Calm - 0.22 in Rain , Thunderstorm Light Thunderstorms and Rain
3:35 PM 63.0 °F 59.4 °F 88% 30.00 in 5.0 mi SE 5.8 mph 18.4 mph 0.23 in Rain , Thunderstorm Light Thunderstorms and Rain
3:55 PM 60.3 °F 57.2 °F 90% 30.00 in 1.2 mi ESE 6.9 mph - 0.42 in Rain Heavy Rain
4:35 PM 62.1 °F 58.1 °F 87% 29.99 in 10.0 mi ESE 6.9 mph - N/A   Scattered Clouds
4:55 PM 61.7 °F 58.1 °F 88% 30.00 in 10.0 mi SSW 3.5 mph - N/A   Overcast
5:15 PM 61.0 °F 58.3 °F 91% 30.00 in 3.0 mi NNE 5.8 mph - 0.10 in Rain Heavy Rain
5:35 PM 61.2 °F 58.8 °F 92% 30.00 in 10.0 mi Calm Calm - 0.18 in Rain Light Rain
5:55 PM 61.2 °F 59.2 °F 93% 30.00 in 2.0 mi NE 3.5 mph - 0.22 in Rain Light Rain
6:15 PM 61.2 °F 59.9 °F 96% 30.00 in 10.0 mi ENE 3.5 mph - N/A   Overcast
6:35 PM 61.2 °F 59.7 °F 95% 30.00 in 10.0 mi Calm Calm - N/A   Overcast
6:55 PM 61.2 °F 60.3 °F 97% 30.00 in 10.0 mi East 3.5 mph - N/A   Overcast
7:15 PM 61.2 °F 60.3 °F 97% 30.00 in 10.0 mi Calm Calm - N/A   Overcast
7:35 PM 61.2 °F 60.8 °F 99% 29.99 in 4.0 mi North 8.1 mph - 0.02 in Rain Rain
7:55 PM 59.4 °F 58.8 °F 98% 30.00 in 3.0 mi WNW 5.8 mph - 0.12 in Rain Heavy Rain
8:15 PM 58.1 °F 57.0 °F 96% 30.00 in 0.8 mi ENE 6.9 mph - 0.32 in Rain Heavy Rain
8:35 PM 57.2 °F 56.5 °F 97% 30.00 in 7.0 mi NNE 3.5 mph - 0.37 in Rain Rain
8:55 PM 57.2 °F 56.7 °F 98% 30.00 in 7.0 mi East 3.5 mph - 0.39 in Rain Rain
9:15 PM 57.0 °F 56.7 °F 99% 30.00 in 7.0 mi Calm Calm - 0.01 in Rain Rain
9:35 PM 57.2 °F 57.0 °F 99% 30.01 in 10.0 mi Calm Calm - 0.01 in   Overcast
9:55 PM 56.8 °F 56.8 °F 100% 30.02 in 5.0 mi Calm Calm - 0.01 in   Overcast
10:15 PM 56.8 °F 56.8 °F 100% 30.02 in 5.0 mi Calm Calm - N/A   Overcast
10:35 PM 57.2 °F 57.2 °F 100% 30.02 in 5.0 mi Calm Calm - N/A   Overcast
10:55 PM 56.8 °F 56.8 °F 100% 30.02 in 1.5 mi Calm Calm - N/A Thunderstorm Overcast
11:15 PM 57.2 °F 57.2 °F 100% 30.01 in 7.0 mi Calm Calm - N/A   Scattered Clouds
11:35 PM 55.8 °F 55.8 °F 100% 30.01 in 0.5 mi Calm Calm - N/A Fog Fog
11:55 PM 54.5 °F 54.5 °F 100% 30.01 in 0.8 mi Calm Calm - N/A   Mostly Cloudy